EW5925 Weather Reports


time (UTC)temp
C
wind
direction
speed
KPH
gust
KPH
rain 1hr
cm
rain 24hr
cm
rain mn
cm
humidity
%
barometer
mb
20260503184553 16 231 0.0 3.2 0.00 0.03 0.03 94 1017.7
20260503184049 16 231 0.0 3.2 0.00 0.03 0.03 94 1017.7
20260503183548 16 231 0.0 4.8 0.00 0.03 0.03 94 1017.6
20260503183315 16 231 1.6 4.8 0.00 0.03 0.03 94 1017.6
20260503182547 16 231 0.0 4.8 0.00 0.03 0.03 94 1017.5
20260503182047 16 231 0.0 4.8 0.03 0.03 0.03 94 1017.6
20260503181547 16 231 0.0 1.6 0.03 0.03 0.03 94 1017.6
20260503181308 16 231 0.0 4.8 0.03 0.03 0.03 94 1017.6
20260503180811 16 231 0.0 4.8 0.03 0.03 0.03 94 1017.7
20260503180032 16 231 0.0 4.8 0.03 0.03 0.03 93 1017.6
20260503175532 16 231 0.0 4.8 0.03 0.03 0.03 93 1017.7
20260503175032 16 231 0.0 3.2 0.03 0.03 0.03 93 1017.7
20260503174528 16 231 0.0 3.2 0.03 0.03 0.03 93 1017.7
20260503174029 16 231 0.0 3.2 0.03 0.03 0.03 93 1017.7
20260503173525 16 231 1.6 6.4 0.03 0.03 0.03 93 1017.8
20260503173024 16 231 0.0 6.4 0.03 0.03 0.03 93 1017.7
20260503172526 16 231 1.6 4.8 0.03 0.03 0.03 93 1017.7
20260503172019 16 231 0.0 4.8 0.00 0.00 0.00 93 1017.6
20260503171517 16 231 0.0 4.8 0.00 0.00 0.00 93 1017.7
20260503171015 17 231 0.0 4.8 0.00 0.00 0.00 93 1017.7
20260503170744 17 231 0.0 0.0 0.00 0.00 0.00 93 1017.7
20260503170231 17 231 0.0 3.2 0.00 0.00 0.00 93 1017.8
20260503150750 16 122 0.0 0.0 0.00 0.00 0.00 92 1018.9
20260503150304 16 122 0.0 0.0 0.00 0.00 0.00 92 1018.9
20260503140227 17 122 0.0 0.0 0.00 0.00 0.00 92 1019.3
20260503131157 17 122 0.0 0.0 0.00 0.00 0.00 91 1019.6
20260503130655 17 122 0.0 0.0 0.00 0.00 0.00 91 1019.6
20260503130156 17 122 0.0 0.0 0.00 0.00 0.00 91 1019.7
20260503120124 18 122 0.0 0.0 0.00 0.00 0.00 90 1020.0
20260503110522 18 122 0.0 0.0 0.00 0.00 0.00 89 1019.8
20260503090129 20 123 0.0 0.0 0.00 0.00 0.00 85 1019.3
20260503081319 21 123 0.0 3.2 0.00 0.00 0.00 83 1019.3
20260503080753 21 123 0.0 0.0 0.00 0.00 0.00 83 1019.1
20260503080224 21 123 0.0 0.0 0.00 0.00 0.00 82 1019.0
20260503072941 22 123 1.6 4.8 0.00 0.00 0.00 81 1018.8
20260503072425 22 122 1.6 4.8 0.00 0.00 0.00 80 1018.7
20260503071848 22 122 1.6 6.4 0.00 0.00 0.00 80 1018.8
20260503071322 22 122 1.6 6.4 0.00 0.00 0.00 80 1018.8
20260503070755 22 123 3.2 6.4 0.00 0.00 0.00 80 1018.8
20260503070455 22 123 3.2 11.3 0.00 0.00 0.00 79 1018.7
20260503054846 25 114 6.4 16.1 0.00 0.03 0.00 70 1018.8
20260503054344 25 101 6.4 16.1 0.00 0.03 0.00 69 1018.7
20260503053842 25 141 4.8 14.5 0.00 0.03 0.00 68 1018.5
20260503053345 25 126 4.8 16.1 0.00 0.03 0.00 68 1018.4
20260503053100 25 120 4.8 16.1 0.00 0.03 0.00 67 1018.5
20260503052342 25 157 4.8 20.9 0.00 0.03 0.00 68 1018.6
20260503051840 25 130 6.4 20.9 0.00 0.03 0.00 67 1018.6
20260503051339 25 110 9.7 20.9 0.00 0.03 0.00 65 1018.7
20260503050838 25 110 8.0 20.9 0.00 0.03 0.00 65 1018.7
20260503050342 25 116 6.4 14.5 0.00 0.03 0.00 66 1018.6
20260503045832 26 116 6.4 17.7 0.00 0.03 0.00 65 1018.5
20260503045330 26 123 4.8 17.7 0.00 0.03 0.00 65 1018.5
20260503044828 26 102 3.2 14.5 0.00 0.03 0.00 67 1018.4
20260503044330 25 96 4.8 14.5 0.00 0.03 0.00 67 1018.5
20260503043814 25 105 6.4 14.5 0.00 0.05 0.00 66 1018.6
20260503043314 25 124 6.4 14.5 0.00 0.05 0.00 66 1018.6
20260503042751 26 117 6.4 17.7 0.00 0.05 0.00 66 1018.5
20260503042254 26 129 6.4 17.7 0.00 0.08 0.00 65 1018.5
20260503041735 26 122 4.8 17.7 0.00 0.23 0.00 66 1018.5
20260503041238 26 154 4.8 17.7 0.00 0.23 0.00 67 1018.5
20260503040712 25 126 6.4 17.7 0.00 0.23 0.00 68 1018.6
20260503040212 25 114 8.0 17.7 0.00 0.23 0.00 67 1018.7
20260503035712 25 112 8.0 17.7 0.00 0.23 0.00 67 1018.6
20260503035207 25 117 6.4 17.7 0.00 0.25 0.00 66 1018.7
20260503034709 25 118 6.4 16.1 0.00 0.25 0.00 67 1018.7
20260503034647 25 104 6.4 16.1 0.00 0.25 0.00 67 1018.7
20260503033705 26 169 6.4 17.7 0.00 0.25 0.00 66 1018.7
20260503033206 26 132 6.4 17.7 0.00 0.25 0.00 67 1018.7
20260503032705 26 125 6.4 17.7 0.00 0.25 0.00 66 1018.8
20260503032207 26 153 6.4 17.7 0.00 0.25 0.00 68 1018.8
20260503031716 25 99 6.4 16.1 0.00 0.25 0.00 66 1018.9
20260503031204 25 124 8.0 14.5 0.00 0.25 0.00 68 1018.9
20260503030926 25 118 6.4 14.5 0.00 0.25 0.00 68 1018.9
20260503030206 25 119 4.8 14.5 0.00 0.25 0.00 69 1019.1
20260503025702 25 120 6.4 19.3 0.00 0.25 0.00 69 1019.2
20260503025434 25 122 8.0 19.3 0.00 0.25 0.00 69 1019.3
20260503024702 25 122 8.0 19.3 0.00 0.25 0.00 70 1019.3
20260503023702 25 133 8.0 16.1 0.00 0.25 0.00 69 1019.5
20260503023422 25 126 6.4 16.1 0.00 0.25 0.00 68 1019.5
20260503022653 25 157 8.0 17.7 0.00 0.25 0.00 68 1019.6
20260503022154 25 125 8.0 17.7 0.00 0.25 0.00 68 1019.6
20260503021655 25 117 6.4 17.7 0.00 0.25 0.00 70 1019.6
20260503021154 25 141 4.8 19.3 0.00 0.25 0.00 70 1019.7
20260503020654 25 108 6.4 19.3 0.00 0.25 0.00 72 1019.7
20260503020414 25 95 8.0 19.3 0.00 0.25 0.00 71 1019.8
20260503015653 24 134 8.0 19.3 0.00 0.25 0.00 71 1019.9
20260503015634 24 93 6.4 19.3 0.00 0.25 0.00 71 1019.9
20260503014636 24 114 6.4 19.3 0.00 0.25 0.00 71 1020.0
20260503014137 24 110 6.4 14.5 0.00 0.25 0.00 71 1020.2
20260503013633 25 128 8.0 14.5 0.00 0.25 0.00 70 1020.2
20260503013133 25 139 8.0 14.5 0.00 0.25 0.00 69 1020.3
20260503012900 25 136 6.4 14.5 0.00 0.25 0.00 68 1020.4
20260503012132 25 135 8.0 17.7 0.00 0.25 0.00 68 1020.4
20260503011632 25 124 8.0 17.7 0.00 0.25 0.00 68 1020.6
20260503011132 25 123 6.4 17.7 0.00 0.25 0.00 69 1020.7
20260503010629 25 108 6.4 14.5 0.00 0.25 0.00 70 1020.9
20260503010129 25 114 6.4 17.7 0.00 0.25 0.00 70 1020.9
20260503005851 25 144 6.4 17.7 0.00 0.25 0.00 70 1020.9
20260503005343 25 117 6.4 16.1 0.00 0.25 0.00 70 1021.0
20260503004621 25 106 4.8 12.9 0.00 0.25 0.00 72 1021.1
20260503004120 25 134 4.8 12.9 0.00 0.25 0.00 72 1021.1
20260503003621 25 121 4.8 14.5 0.00 0.25 0.00 73 1021.1
20260503003113 25 203 4.8 14.5 0.00 0.25 0.00 73 1021.1
20260503002611 24 117 6.4 14.5 0.00 0.25 0.00 74 1021.2
20260503002109 24 112 6.4 14.5 0.00 0.25 0.00 73 1021.3
20260503001827 24 180 4.8 11.3 0.00 0.25 0.00 75 1021.2
20260503001107 24 175 4.8 14.5 0.00 0.25 0.00 75 1021.3
20260503000608 24 123 6.4 17.7 0.00 0.25 0.00 76 1021.3
20260503000106 23 126 6.4 17.7 0.00 0.25 0.00 76 1021.4
20260502235607 23 161 6.4 14.5 0.00 0.25 0.00 77 1021.5
20260502235105 23 120 6.4 14.5 0.00 0.25 0.00 77 1021.5
20260502234605 23 120 6.4 16.1 0.00 0.25 0.00 78 1021.5
20260502234103 23 185 4.8 16.1 0.00 0.25 0.00 79 1021.6
20260502233601 23 131 4.8 14.5 0.00 0.25 0.00 79 1021.5
20260502233104 22 122 4.8 12.9 0.00 0.25 0.00 80 1021.6
20260502232539 22 208 4.8 11.3 0.00 0.25 0.00 82 1021.6
20260502232039 22 246 3.2 8.0 0.00 0.25 0.00 83 1021.6
20260502231527 21 175 3.2 8.0 0.00 0.25 0.00 83 1021.7
20260502231246 21 209 4.8 9.7 0.00 0.25 0.00 84 1021.6
20260502230528 21 261 3.2 9.7 0.00 0.25 0.00 84 1021.7
20260502230027 21 185 3.2 8.0 0.00 0.25 0.00 85 1021.6
20260502225523 20 235 3.2 8.0 0.00 0.25 0.00 86 1021.6
20260502225024 20 231 1.6 6.4 0.00 0.25 0.00 87 1021.6
20260502224745 20 220 1.6 6.4 0.00 0.25 0.00 88 1021.6
20260502224023 20 239 3.2 6.4 0.00 0.25 0.00 88 1021.6
20260502223521 20 192 3.2 6.4 0.00 0.25 0.00 88 1021.7
20260502223019 19 185 3.2 6.4 0.00 0.25 0.00 89 1021.5
20260502222517 19 240 3.2 8.0 0.00 0.25 0.00 90 1021.4
20260502222250 18 241 3.2 8.0 0.00 0.25 0.00 90 1021.3
20260502221516 18 212 3.2 8.0 0.00 0.25 0.00 91 1021.3
20260502221013 18 244 1.6 6.4 0.00 0.25 0.00 92 1021.3
20260502220515 18 196 1.6 4.8 0.00 0.25 0.00 92 1021.3
20260502220205 18 196 1.6 6.4 0.00 0.25 0.00 92 1021.2
20260502215639 17 196 1.6 6.4 0.00 0.25 0.00 92 1021.1
20260502214853 17 196 1.6 4.8 0.00 0.25 0.00 93 1021.1
20260502214324 17 196 3.2 9.7 0.00 0.25 0.00 93 1021.0
20260502213756 17 196 3.2 9.7 0.00 0.25 0.00 93 1020.9
20260502213231 16 251 3.2 9.7 0.00 0.25 0.00 93 1020.9
20260502212707 16 208 3.2 9.7 0.00 0.25 0.00 93 1021.0
20260502212140 16 189 3.2 9.7 0.00 0.25 0.00 93 1020.9
20260502211611 16 202 3.2 9.7 0.00 0.25 0.00 92 1020.9
20260502211045 16 219 1.6 6.4 0.00 0.25 0.00 92 1020.9
20260502210519 16 212 1.6 6.4 0.00 0.25 0.00 92 1020.8
20260502205958 16 212 0.0 3.2 0.00 0.25 0.00 92 1020.7
20260502205433 16 212 1.6 3.2 0.00 0.25 0.00 92 1020.7
20260502204907 16 212 1.6 4.8 0.00 0.25 0.00 92 1020.6
20260502204341 16 212 1.6 4.8 0.00 0.25 0.00 92 1020.6
20260502203813 16 212 3.2 6.4 0.00 0.25 0.00 92 1020.6
20260502203245 16 212 1.6 6.4 0.00 0.28 0.00 92 1020.6
20260502202938 16 212 1.6 3.2 0.00 0.30 0.00 92 1020.6
20260502202151 16 212 1.6 4.8 0.00 0.33 0.00 92 1020.4
20260502201838 16 212 1.6 4.8 0.00 0.33 0.00 92 1020.5
20260502201057 16 212 1.6 4.8 0.00 0.33 0.00 92 1020.4
20260502200749 16 212 1.6 4.8 0.00 0.33 0.00 91 1020.3
20260502200001 16 212 1.6 6.4 0.00 0.33 0.00 91 1020.3
20260502195434 16 212 1.6 6.4 0.00 0.33 0.00 91 1020.2
20260502194906 16 212 1.6 4.8 0.00 0.33 0.00 91 1020.2
20260502194338 16 212 0.0 3.2 0.00 0.33 0.00 91 1020.2
20260502194103 16 212 1.6 4.8 0.00 0.33 0.00 91 1020.1
20260502193331 16 212 3.2 4.8 0.00 0.33 0.00 91 1020.1
20260502192843 16 212 3.2 6.4 0.00 0.33 0.00 91 1020.2
20260502192330 16 212 1.6 6.4 0.00 0.33 0.00 91 1020.2
20260502191831 16 202 1.6 6.4 0.00 0.33 0.00 91 1020.2
20260502191342 16 202 0.0 4.8 0.00 0.36 0.00 91 1020.1
20260502190827 16 159 0.0 3.2 0.00 0.36 0.00 90 1019.9
20260502190327 16 159 1.6 3.2 0.00 0.36 0.00 90 1019.9
20260502190056 16 159 1.6 6.4 0.00 0.36 0.00 90 1019.9
20260502185321 16 159 1.6 6.4 0.00 0.36 0.00 90 1019.9